| time (UTC) | temp C | wind direction | speed KPH | gust KPH | rain 1hr cm | rain 24hr cm | rain mn cm | humidity % | barometer mb |
| 20260504192012 | 22 | 247 | 1.6 | 4.8 | 0.00 | 0.00 | 0.00 | 38 | 1026.5 |
| 20260504191111 | 22 | 180 | 1.6 | 3.2 | 0.00 | 0.00 | 0.00 | 38 | 1026.6 |
| 20260504190113 | 22 | 180 | 3.2 | 8.0 | 0.00 | 0.00 | 0.00 | 38 | 1026.8 |
| 20260504185212 | 22 | 180 | 3.2 | 6.4 | 0.00 | 0.00 | 0.00 | 38 | 1026.8 |
| 20260504184213 | 22 | 180 | 1.6 | 4.8 | 0.00 | 0.00 | 0.00 | 36 | 1027.0 |
| 20260504183313 | 22 | 180 | 1.6 | 3.2 | 0.00 | 0.00 | 0.00 | 36 | 1027.1 |
| 20260504181314 | 22 | 157 | 1.6 | 3.2 | 0.00 | 0.00 | 0.00 | 37 | 1027.3 |
| 20260504180314 | 22 | 157 | 1.6 | 8.0 | 0.00 | 0.00 | 0.00 | 38 | 1027.3 |
| 20260504174315 | 21 | 172 | 1.6 | 6.4 | 0.00 | 0.00 | 0.00 | 37 | 1027.5 |
| 20260504173316 | 21 | 157 | 1.6 | 6.4 | 0.00 | 0.00 | 0.00 | 38 | 1027.4 |
| 20260504172313 | 21 | 80 | 0.0 | 1.6 | 0.00 | 0.00 | 0.00 | 37 | 1027.6 |
| 20260504171313 | 21 | 183 | 1.6 | 6.4 | 0.00 | 0.00 | 0.00 | 38 | 1027.7 |
| 20260504170311 | 21 | 224 | 0.0 | 4.8 | 0.00 | 0.00 | 0.00 | 36 | 1027.8 |
| 20260504160413 | 20 | 202 | 0.0 | 1.6 | 0.00 | 0.00 | 0.00 | 34 | 1028.4 |
| 20260504150512 | 20 | 180 | 1.6 | 9.7 | 0.00 | 0.00 | 0.00 | 34 | 1028.9 |
| 20260504140612 | 18 | 292 | 3.2 | 8.0 | 0.00 | 0.00 | 0.00 | 38 | 1029.2 |
| 20260504100113 | 6 | 225 | 0.0 | 1.6 | 0.00 | 0.00 | 0.00 | 70 | 1029.6 |
| 20260504081112 | 6 | 225 | 0.0 | 0.0 | 0.00 | 0.00 | 0.00 | 67 | 1028.9 |
| 20260504080113 | 6 | 225 | 0.0 | 0.0 | 0.00 | 0.00 | 0.00 | 67 | 1028.8 |
| 20260504070312 | 7 | 292 | 0.0 | 0.0 | 0.00 | 0.00 | 0.00 | 66 | 1028.4 |
| 20260504050611 | 5 | 292 | 0.0 | 0.0 | 0.00 | 0.00 | 0.00 | 69 | 1028.1 |
| 20260504045615 | 5 | 292 | 0.0 | 0.0 | 0.00 | 0.00 | 0.00 | 69 | 1028.1 |
| 20260504044612 | 5 | 292 | 0.0 | 0.0 | 0.00 | 0.00 | 0.00 | 68 | 1028.1 |
| 20260504042612 | 5 | 292 | 0.0 | 0.0 | 0.00 | 0.00 | 0.00 | 65 | 1028.1 |
| 20260504041612 | 5 | 292 | 0.0 | 0.0 | 0.00 | 0.00 | 0.00 | 65 | 1028.1 |
| 20260504040612 | 6 | 292 | 0.0 | 0.0 | 0.00 | 0.00 | 0.00 | 65 | 1028.1 |
| 20260504035615 | 6 | 292 | 0.0 | 0.0 | 0.00 | 0.00 | 0.00 | 63 | 1028.1 |
| 20260504034617 | 6 | 292 | 0.0 | 0.0 | 0.00 | 0.00 | 0.00 | 63 | 1028.1 |
| 20260504033715 | 6 | 292 | 0.0 | 0.0 | 0.00 | 0.00 | 0.00 | 62 | 1028.0 |
| 20260504031719 | 6 | 292 | 0.0 | 0.0 | 0.00 | 0.00 | 0.00 | 62 | 1028.0 |
| 20260504030716 | 6 | 292 | 0.0 | 0.0 | 0.00 | 0.00 | 0.00 | 61 | 1027.9 |
| 20260504025719 | 6 | 292 | 0.0 | 0.0 | 0.00 | 0.00 | 0.00 | 64 | 1027.9 |
| 20260504024715 | 6 | 292 | 0.0 | 0.0 | 0.00 | 0.00 | 0.00 | 63 | 1028.0 |
| 20260504023718 | 6 | 292 | 0.0 | 0.0 | 0.00 | 0.00 | 0.00 | 60 | 1028.0 |
| 20260504021717 | 7 | 292 | 0.0 | 0.0 | 0.00 | 0.00 | 0.00 | 57 | 1027.9 |
| 20260504020815 | 7 | 292 | 0.0 | 0.0 | 0.00 | 0.00 | 0.00 | 55 | 1027.9 |
| 20260504015818 | 7 | 292 | 0.0 | 0.0 | 0.00 | 0.00 | 0.00 | 54 | 1027.9 |
| 20260504014817 | 7 | 292 | 0.0 | 0.0 | 0.00 | 0.00 | 0.00 | 52 | 1028.0 |
| 20260504011916 | 8 | 292 | 0.0 | 0.0 | 0.00 | 0.00 | 0.00 | 48 | 1027.7 |
| 20260504011016 | 8 | 292 | 0.0 | 0.0 | 0.00 | 0.00 | 0.00 | 47 | 1027.7 |
| 20260504010017 | 9 | 292 | 0.0 | 0.0 | 0.00 | 0.00 | 0.00 | 48 | 1027.6 |
| 20260504005116 | 10 | 292 | 0.0 | 0.0 | 0.00 | 0.00 | 0.00 | 46 | 1027.4 |
| 20260504004116 | 10 | 292 | 0.0 | 0.0 | 0.00 | 0.00 | 0.00 | 44 | 1027.3 |
| 20260504003116 | 10 | 292 | 0.0 | 0.0 | 0.00 | 0.00 | 0.00 | 42 | 1027.2 |
| 20260504002215 | 10 | 292 | 0.0 | 0.0 | 0.00 | 0.00 | 0.00 | 39 | 1027.0 |
| 20260504001219 | 11 | 292 | 0.0 | 0.0 | 0.00 | 0.00 | 0.00 | 38 | 1027.0 |
| 20260504000317 | 11 | 292 | 0.0 | 0.0 | 0.00 | 0.00 | 0.00 | 38 | 1026.8 |
| 20260503235317 | 11 | 292 | 0.0 | 0.0 | 0.00 | 0.00 | 0.00 | 37 | 1026.8 |
| 20260503234317 | 12 | 292 | 0.0 | 0.0 | 0.00 | 0.00 | 0.00 | 36 | 1026.7 |
| 20260503233317 | 12 | 292 | 0.0 | 0.0 | 0.00 | 0.00 | 0.00 | 34 | 1026.5 |
| 20260503232317 | 13 | 292 | 0.0 | 1.6 | 0.00 | 0.00 | 0.00 | 32 | 1026.4 |
| 20260503231317 | 13 | 312 | 3.2 | 4.8 | 0.00 | 0.00 | 0.00 | 31 | 1026.3 |
| 20260503225419 | 13 | 304 | 1.6 | 6.4 | 0.00 | 0.00 | 0.00 | 33 | 1026.1 |
| 20260503224417 | 13 | 315 | 3.2 | 9.7 | 0.00 | 0.00 | 0.00 | 33 | 1026.1 |
| 20260503223515 | 13 | 292 | 3.2 | 8.0 | 0.00 | 0.00 | 0.00 | 33 | 1026.0 |
| 20260503222516 | 13 | 298 | 4.8 | 8.0 | 0.00 | 0.00 | 0.00 | 33 | 1026.1 |
| 20260503221518 | 13 | 298 | 6.4 | 12.9 | 0.00 | 0.00 | 0.00 | 34 | 1026.1 |
| 20260503220516 | 13 | 291 | 3.2 | 8.0 | 0.00 | 0.00 | 0.00 | 34 | 1026.0 |
| 20260503215517 | 13 | 297 | 4.8 | 8.0 | 0.00 | 0.00 | 0.00 | 35 | 1026.0 |
| 20260503213515 | 13 | 304 | 4.8 | 11.3 | 0.00 | 0.00 | 0.00 | 34 | 1025.9 |
| 20260503211516 | 13 | 254 | 3.2 | 6.4 | 0.00 | 0.00 | 0.00 | 35 | 1025.8 |
| 20260503210517 | 13 | 317 | 6.4 | 9.7 | 0.00 | 0.00 | 0.00 | 35 | 1025.7 |
| 20260503205518 | 13 | 301 | 9.7 | 12.9 | 0.00 | 0.00 | 0.00 | 36 | 1025.8 |
| 20260503204518 | 12 | 290 | 3.2 | 9.7 | 0.00 | 0.00 | 0.00 | 37 | 1025.7 |
| 20260503203516 | 12 | 307 | 6.4 | 11.3 | 0.00 | 0.00 | 0.00 | 40 | 1025.8 |
| 20260503202517 | 12 | 322 | 3.2 | 6.4 | 0.00 | 0.00 | 0.00 | 39 | 1026.0 |
| 20260503200616 | 12 | 312 | 3.2 | 6.4 | 0.00 | 0.00 | 0.00 | 37 | 1025.9 |
| 20260503195715 | 13 | 324 | 8.0 | 16.1 | 0.00 | 0.00 | 0.00 | 37 | 1025.9 |